CDT,Max TemperatureF,Mean TemperatureF,Min TemperatureF,Max Dew PointF,MeanDew PointF,Min DewpointF,Max Humidity, Mean Humidity, Min Humidity, Max Sea Level PressureIn, Mean Sea Level PressureIn, Min Sea Level PressureIn, Max VisibilityMiles, Mean VisibilityMiles, Min VisibilityMiles, Max Wind SpeedMPH, Mean Wind SpeedMPH, Max Gust SpeedMPH,PrecipitationIn, CloudCover, Events, WindDirDegrees
2011-10-1,86,72,57,44,40,36,51,33,22,30.15,30.08,30.02,10,10,10,13,8,17,0.00,0,,148
2011-10-2,88,74,61,51,46,42,56,38,21,30.11,30.04,29.99,10,10,10,15,10,21,0.00,0,,147
2011-10-3,84,72,59,49,44,40,55,38,21,30.09,30.03,29.99,10,10,10,20,13,29,0.00,0,,144
2011-10-4,84,71,60,57,46,38,78,42,28,30.12,30.00,29.91,10,10,10,22,15,29,0.06,1,Rain-Thunderstorm,152
2011-10-5,84,70,59,58,55,50,90,65,37,30.07,29.92,29.77,10,10,8,21,14,31,0.15,2,Rain-Thunderstorm,141
2011-10-6,91,77,64,59,56,50,78,52,25,29.80,29.73,29.65,10,10,10,25,19,39,0.00,0,,154
2011-10-7,90,78,66,62,58,53,84,54,29,29.79,29.71,29.68,10,10,10,28,21,39,0.00,0,,148
2011-10-8,79,68,59,61,44,32,81,44,21,29.90,29.81,29.68,10,10,10,25,14,38,0.00,3,,22
2011-10-9,73,63,53,56,53,48,100,79,41,30.09,29.96,29.86,10,10,7,13,5,,0.01,5,Rain,30
2011-10-10,79,68,57,57,54,49,93,70,36,30.12,29.98,29.84,10,10,10,17,9,23,0.00,3,,129
2011-10-11,89,74,61,61,56,50,87,59,27,29.88,29.78,29.68,10,10,9,18,11,23,0.00,0,Thunderstorm,155
2011-10-12,87,73,59,59,36,27,81,31,11,29.92,29.81,29.72,10,10,10,14,10,23,0.00,0,,282
2011-10-13,84,70,57,54,43,29,75,43,13,30.02,29.93,29.84,10,10,10,16,9,22,0.00,0,,155
2011-10-14,93,76,62,48,37,17,52,31,6,29.88,29.82,29.76,10,10,10,17,11,24,0.00,0,,181
2011-10-15,86,72,57,47,43,38,52,37,19,30.00,29.92,29.83,10,10,10,16,11,24,0.00,0,,170
2011-10-16,93,74,55,49,40,24,69,36,9,29.99,29.92,29.84,10,10,10,16,10,22,0.00,0,,170
2011-10-17,98,80,64,48,30,16,52,20,6,30.05,29.81,29.66,10,8,1,32,15,43,0.00,2,,290
2011-10-18,68,57,48,38,33,24,61,40,21,30.23,30.13,29.95,10,10,5,15,9,25,0.00,2,,357
2011-10-19,75,60,46,26,22,17,40,25,15,30.22,30.11,29.98,10,10,8,12,6,,0.00,0,,140
2011-10-20,91,71,51,28,23,19,33,19,7,29.96,29.91,29.83,10,10,10,18,12,26,0.00,0,,244
2011-10-21,91,75,59,43,28,21,39,20,8,30.02,29.94,29.89,10,10,10,15,10,25,0.00,0,,254
2011-10-22,89,74,59,44,31,21,50,26,9,29.99,29.92,29.85,10,10,5,12,8,16,0.00,0,,223
2011-10-23,82,68,54,46,35,22,41,31,19,30.06,30.00,29.90,10,10,10,10,7,,0.00,0,,222
2011-10-24,88,72,57,50,42,33,62,38,15,30.10,30.02,29.95,10,10,10,18,10,25,0.00,0,,148
2011-10-25,93,76,59,50,43,36,55,35,14,29.98,29.90,29.81,10,10,10,18,12,26,0.00,0,,170
2011-10-26,90,76,64,52,45,40,54,34,19,29.84,29.75,29.63,10,10,3,17,9,25,0.00,1,,176
2011-10-27,72,58,44,50,42,36,100,76,43,30.20,30.03,29.62,10,8,2,20,14,28,0.00,7,Rain-Thunderstorm,1
2011-10-28,57,50,43,36,34,32,74,60,40,30.35,30.25,30.20,10,10,10,9,5,,0.00,4,,335
2011-10-29,73,55,37,33,31,29,73,45,20,30.28,30.12,29.95,10,10,10,14,7,,0.00,0,,170
2011-10-30,75,64,52,35,31,28,47,33,18,30.15,30.02,29.92,10,10,10,16,10,24,0.00,0,,280
2011-10-31,82,64,46,48,35,31,61,42,16,30.17,30.07,29.94,10,10,10,20,6,28,0.00,0,,178